Miscellaneous Local Product
Issued by NWS North Platte, NE

Current Version | Previous Version | Text Only | Print | Product List | Glossary On
Versions: 1 2 3 4 5 6 7 8 9 10 11 12 13 14 15 16 17 18 19 20 21 22 23 24 25 26 27 28 29 30 31 32 33 34 35 36 37 38 39 40 41 42 43 44 45 46 47 48 49 50
000
AXUS43 KLBF 280510
MISLBF


WESTERN AND NORTH CENTRAL NEBRASKA HOURLY WEATHER ROUNDUP
NATIONAL WEATHER SERVICE NORTH PLATTE NE
1200 AM CDT TUE APR 28 2015

***STATIONS NOT REPORTING VARIABLES SUCH AS SKY/WEATHER OR
PRESSURE ARE PROVIDED BY THE NEBRASKA DEPARTMENT OF
ROADS...RAWS...AND APRS NETWORKS...AND ARE NOT UNDER
NATIONAL WEATHER SERVICE QUALITY CONTROL***

...OBSERVATIONS IN AND NEAR THE EASTERN PANHANDLE OF NEBRASKA...

CITY           SKY/WX    TMP DP  RH WIND       PRES   REMARKS
PINE RIDGE     CLOUDY    45  40  82 CALM      30.35R
CHADRON        CLOUDY    45  41  86 NE3       30.36R
ALLIANCE       PTCLDY    42  39  89 N9        30.33R
SIDNEY         CLOUDY    46  41  82 N13       30.32R
WHITECLAY        N/A     42  38  87 CALM        N/A
CRESCENT LAKE    N/A     47  41  80 NE7G14      N/A
BIG SPRINGS      N/A     53  43  69 NE5         N/A
$$

...OBSERVATIONS IN NORTH CENTRAL NEBRASKA...

CITY           SKY/WX    TMP DP  RH WIND       PRES   REMARKS
VALENTINE      MOCLDY    47  40  76 N13G21    30.32R
THEDFORD       CLEAR     50  43  76 N13G18    30.29R
AINSWORTH      CLEAR     48  42  78 N16G23    30.30R
O`NEILL        PTCLDY    50  41  69 NW12      30.24S
ORD            PTCLDY    42  32  67 CALM      30.21R
BROKEN BOW     PTCLDY    48  31  51 N13       30.24R
BROWNLEE         N/A     51  43  76 SW18        N/A
SPRINGVIEW       N/A     49  42  77 W5G13       N/A
BREWSTER         N/A     54  43  67 N13         N/A
ROSE             N/A     50  45  84 SW7         N/A
NEWPORT          N/A     50  43  78 W9          N/A
SARGENT          N/A     50  39  66 CALM        N/A
COMSTOCK         N/A     47  32  56 CALM        N/A
EWING            N/A     47  34  60 CALM        N/A
$$

...OBSERVATIONS IN SOUTHWEST NEBRASKA AND FAR NORTHEAST COLORADO...

CITY           SKY/WX    TMP DP  RH WIND       PRES   REMARKS
WRAY           MOCLDY    42  37  81 W9        30.27S
HOLYOKE        CLOUDY    52  41  66 NW8       30.27S
IMPERIAL       PTCLDY    44  33  65 NW5       30.25R
OGALLALA       CLOUDY    52  42  68 NE15      30.28R
NORTH PLATTE   PTCLDY    51  39  63 N12       30.27R
MCCOOK         CLEAR     46  35  65 N5        30.23R
LEXINGTON      CLEAR     41  33  75 CALM      30.23R
PAXTON           N/A     54  40  59 N10         N/A
SUTHERLAND       N/A     48  39  72 NE7         N/A
BRADY            N/A     45  35  67 CALM        N/A
GOTHENBURG       N/A     49  31  50 N3          N/A
CALLAWAY         N/A     49  37  62 E3          N/A
$$

...NORTH PLATTE AREA...

CITY           SKY/WX    TMP DP  RH WIND       PRES   REMARKS
AIRPORT        PTCLDY    51  39  63 N12       30.27R
DOWNTOWN         N/A     53  42  65 N5          N/A
$$

...SOME WEATHER OBSERVATIONS FROM AROUND THE REGION...

CITY           SKY/WX    TMP DP  RH WIND       PRES   REMARKS
DENVER         CLOUDY    44  40  85 CALM      30.34R
LARAMIE        CLOUDY    37  31  78 SE7       30.34S WCI  32
CHEYENNE       CLOUDY    40  36  86 N3        30.35S
SCOTTSBLUFF    CLOUDY    47  41  80 NW7       30.34R
RAPID CITY     CLOUDY    42  38  85 NW5       30.35R
PIERRE         CLOUDY    48  42  80 N9        30.31R
WINNER         FAIR      45  38  76 NW9       30.31R
SIOUX FALLS    PTCLDY    46  34  62 CALM      30.19R
OMAHA          MOCLDY    46  39  76 N6        30.17S
GRAND ISLAND   PTCLDY    44  34  67 NW5       30.21R
KANSAS CITY    PTCLDY    51  36  56 NE6       30.13R
WICHITA        CLOUDY    55  36  48 NE8       30.11S
HAYS           PTCLDY    41  28  60 N7        30.19S
LIBERAL        MOCLDY    43  37  81 N7        30.20S
GOODLAND       PTCLDY    41  35  79 W5        30.25S
$$



USA.gov is the U.S. government's official web portal to all federal, state and local government web resources and services.